| time (UTC) | temp F | wind direction | speed MPH | gust MPH | rain 1hr in | rain 24hr in | rain mn in | humidity % | barometer mb |
| 20260902065548 | 50 | 280 | 1.0 | 10.0 | 0.00 | 0.13 | 0.04 | 78 | 1007.5 |
| 20260902065048 | 50 | 208 | 3.0 | 9.0 | 0.01 | 0.13 | 0.04 | 78 | 1007.5 |
| 20260902064548 | 50 | 243 | 2.0 | 9.0 | 0.01 | 0.13 | 0.04 | 78 | 1007.5 |
| 20260902064048 | 50 | 205 | 1.0 | 16.0 | 0.02 | 0.12 | 0.04 | 78 | 1007.7 |
| 20260902063548 | 50 | 183 | 3.0 | 16.0 | 0.02 | 0.12 | 0.04 | 78 | 1007.7 |
| 20260902063048 | 50 | 126 | 3.0 | 16.0 | 0.03 | 0.12 | 0.04 | 79 | 1007.7 |
| 20260902062548 | 50 | 131 | 6.0 | 12.0 | 0.03 | 0.12 | 0.04 | 78 | 1007.6 |
| 20260902062048 | 50 | 221 | 0.0 | 12.0 | 0.04 | 0.12 | 0.04 | 79 | 1007.7 |
| 20260902061548 | 50 | 215 | 6.0 | 8.0 | 0.04 | 0.12 | 0.04 | 79 | 1007.7 |
| 20260902061048 | 50 | 224 | 2.0 | 12.0 | 0.04 | 0.12 | 0.04 | 79 | 1007.8 |
| 20260902060548 | 50 | 226 | 1.0 | 12.0 | 0.04 | 0.12 | 0.04 | 79 | 1007.8 |
| 20260902060048 | 51 | 60 | 1.0 | 12.0 | 0.04 | 0.12 | 0.04 | 78 | 1007.9 |
| 20260902055548 | 51 | 224 | 0.0 | 11.0 | 0.04 | 0.12 | 0.04 | 78 | 1008.0 |
| 20260902055048 | 51 | 197 | 1.0 | 11.0 | 0.03 | 0.12 | 0.03 | 79 | 1008.0 |
| 20260902054548 | 51 | 222 | 1.0 | 7.0 | 0.03 | 0.12 | 0.03 | 79 | 1008.2 |
| 20260902054048 | 51 | 124 | 1.0 | 7.0 | 0.02 | 0.09 | 0.03 | 79 | 1008.3 |
| 20260902053548 | 51 | 226 | 0.0 | 9.0 | 0.02 | 0.09 | 0.02 | 78 | 1008.4 |
| 20260902053048 | 51 | 245 | 0.0 | 9.0 | 0.01 | 0.09 | 0.02 | 78 | 1008.4 |
| 20260902052547 | 51 | 169 | 1.0 | 9.0 | 0.01 | 0.09 | 0.01 | 78 | 1008.9 |
| 20260902052048 | 51 | 253 | 1.0 | 5.0 | 0.00 | 0.09 | 0.00 | 78 | 1008.6 |
| 20260902051547 | 51 | 246 | 0.0 | 5.0 | 0.00 | 0.09 | 0.00 | 78 | 1008.7 |
| 20260902051138 | 51 | 175 | 0.0 | 5.0 | 0.00 | 0.09 | 0.00 | 78 | 1009.3 |
| 20260902051047 | 51 | 175 | 0.0 | 5.0 | 0.00 | 0.09 | 0.00 | 78 | 1009.3 |
| 20260902050547 | 51 | 175 | 0.0 | 7.0 | 0.00 | 0.09 | 0.00 | 78 | 1008.7 |
| 20260902050047 | 51 | 180 | 0.0 | 7.0 | 0.00 | 0.09 | 0.00 | 79 | 1008.4 |
| 20260902045547 | 51 | 222 | 0.0 | 7.0 | 0.00 | 0.09 | 0.00 | 80 | 1009.1 |
| 20260902045047 | 51 | 212 | 0.0 | 7.0 | 0.00 | 0.09 | 0.00 | 79 | 1008.5 |
| 20260902044547 | 51 | 228 | 2.0 | 7.0 | 0.00 | 0.09 | 0.00 | 79 | 1008.6 |
| 20260902044047 | 51 | 229 | 0.0 | 7.0 | 0.00 | 0.09 | 0.00 | 78 | 1009.1 |
| 20260902043547 | 50 | 233 | 1.0 | 7.0 | 0.00 | 0.09 | 0.00 | 79 | 1009.3 |
| 20260902043047 | 51 | 208 | 0.0 | 9.0 | 0.00 | 0.09 | 0.00 | 78 | 1009.1 |
| 20260902042547 | 51 | 228 | 0.0 | 9.0 | 0.00 | 0.09 | 0.00 | 78 | 1008.7 |
| 20260902042047 | 50 | 239 | 2.0 | 9.0 | 0.00 | 0.09 | 0.00 | 77 | 1008.7 |
| 20260902041547 | 51 | 260 | 1.0 | 7.0 | 0.00 | 0.09 | 0.00 | 77 | 1009.2 |
| 20260902041047 | 51 | 226 | 0.0 | 6.0 | 0.00 | 0.09 | 0.00 | 78 | 1010.2 |
| 20260902040547 | 51 | 232 | 0.0 | 6.0 | 0.00 | 0.09 | 0.00 | 78 | 1009.3 |
| 20260902040049 | 51 | 214 | 1.0 | 9.0 | 0.00 | 0.09 | 0.00 | 77 | 1008.7 |
| 20260902035547 | 50 | 240 | 0.0 | 9.0 | 0.00 | 0.09 | 0.00 | 78 | 1008.7 |
| 20260902035047 | 50 | 243 | 1.0 | 9.0 | 0.00 | 0.09 | 0.00 | 77 | 1009.8 |
| 20260902034548 | 50 | 240 | 2.0 | 8.0 | 0.00 | 0.09 | 0.00 | 77 | 1008.7 |
| 20260902034047 | 50 | 205 | 2.0 | 7.0 | 0.00 | 0.09 | 0.00 | 77 | 1008.7 |
| 20260902033547 | 50 | 219 | 1.0 | 7.0 | 0.00 | 0.09 | 0.00 | 77 | 1008.7 |
| 20260902033047 | 50 | 187 | 0.0 | 5.0 | 0.00 | 0.09 | 0.00 | 77 | 1009.1 |
| 20260902032547 | 50 | 200 | 1.0 | 5.0 | 0.00 | 0.09 | 0.00 | 77 | 1009.2 |
| 20260902032047 | 50 | 134 | 0.0 | 7.0 | 0.00 | 0.09 | 0.00 | 77 | 1008.8 |
| 20260902031547 | 51 | 205 | 0.0 | 7.0 | 0.00 | 0.09 | 0.00 | 77 | 1008.8 |
| 20260902031047 | 51 | 238 | 1.0 | 7.0 | 0.00 | 0.09 | 0.00 | 77 | 1010.4 |
| 20260902030548 | 50 | 256 | 4.0 | 6.0 | 0.00 | 0.09 | 0.00 | 77 | 1008.8 |
| 20260902030047 | 51 | 222 | 0.0 | 8.0 | 0.00 | 0.09 | 0.00 | 77 | 1008.8 |
| 20260902025547 | 51 | 233 | 2.0 | 8.0 | 0.00 | 0.09 | 0.00 | 77 | 1009.4 |
| 20260902025047 | 51 | 211 | 0.0 | 8.0 | 0.00 | 0.09 | 0.00 | 77 | 1008.8 |
| 20260902024547 | 51 | 229 | 1.0 | 6.0 | 0.00 | 0.09 | 0.00 | 77 | 1008.7 |
| 20260902024047 | 51 | 187 | 1.0 | 6.0 | 0.00 | 0.09 | 0.00 | 77 | 1008.7 |
| 20260902023547 | 51 | 240 | 0.0 | 5.0 | 0.00 | 0.09 | 0.00 | 77 | 1008.8 |
| 20260902023047 | 51 | 159 | 0.0 | 9.0 | 0.00 | 0.09 | 0.00 | 77 | 1009.9 |
| 20260902022547 | 51 | 184 | 0.0 | 9.0 | 0.00 | 0.09 | 0.00 | 77 | 1008.7 |
| 20260902022047 | 51 | 212 | 0.0 | 9.0 | 0.00 | 0.09 | 0.00 | 77 | 1008.7 |
| 20260902021547 | 51 | 215 | 3.0 | 8.0 | 0.00 | 0.09 | 0.00 | 77 | 1009.2 |
| 20260902021047 | 51 | 191 | 2.0 | 8.0 | 0.00 | 0.09 | 0.00 | 77 | 1009.4 |
| 20260902020547 | 51 | 231 | 1.0 | 8.0 | 0.00 | 0.09 | 0.00 | 77 | 1008.7 |
| 20260902020047 | 51 | 224 | 3.0 | 9.0 | 0.00 | 0.09 | 0.00 | 77 | 1009.2 |
| 20260902015547 | 51 | 232 | 2.0 | 9.0 | 0.00 | 0.09 | 0.00 | 77 | 1008.7 |
| 20260902015047 | 51 | 238 | 3.0 | 9.0 | 0.00 | 0.09 | 0.00 | 76 | 1008.7 |
| 20260902014547 | 51 | 228 | 1.0 | 5.0 | 0.00 | 0.09 | 0.00 | 77 | 1008.7 |
| 20260902014047 | 51 | 231 | 0.0 | 3.0 | 0.00 | 0.09 | 0.00 | 77 | 1008.6 |
| 20260902013547 | 51 | 245 | 0.0 | 3.0 | 0.00 | 0.09 | 0.00 | 77 | 1008.7 |
| 20260902013047 | 51 | 217 | 0.0 | 6.0 | 0.00 | 0.09 | 0.00 | 76 | 1009.2 |
| 20260902012547 | 51 | 182 | 0.0 | 6.0 | 0.00 | 0.09 | 0.00 | 76 | 1008.7 |
| 20260902012047 | 51 | 226 | 1.0 | 6.0 | 0.00 | 0.09 | 0.00 | 76 | 1009.2 |
| 20260902011547 | 52 | 221 | 0.0 | 7.0 | 0.00 | 0.09 | 0.00 | 76 | 1008.7 |
| 20260902011047 | 51 | 240 | 2.0 | 7.0 | 0.00 | 0.09 | 0.00 | 76 | 1009.7 |
| 20260902010547 | 51 | 222 | 3.0 | 7.0 | 0.00 | 0.09 | 0.00 | 77 | 1009.4 |
| 20260902010047 | 52 | 246 | 1.0 | 7.0 | 0.00 | 0.09 | 0.00 | 77 | 1008.9 |
| 20260902005547 | 52 | 247 | 3.0 | 7.0 | 0.00 | 0.09 | 0.00 | 77 | 1009.2 |
| 20260902005047 | 52 | 243 | 2.0 | 7.0 | 0.00 | 0.09 | 0.00 | 77 | 1008.6 |
| 20260902004547 | 52 | 264 | 0.0 | 7.0 | 0.00 | 0.09 | 0.00 | 76 | 1009.6 |
| 20260902004047 | 52 | 214 | 0.0 | 5.0 | 0.00 | 0.09 | 0.00 | 76 | 1008.7 |
| 20260902003548 | 52 | 215 | 1.0 | 6.0 | 0.00 | 0.09 | 0.00 | 76 | 1009.7 |
| 20260902003047 | 52 | 228 | 0.0 | 6.0 | 0.00 | 0.09 | 0.00 | 76 | 1008.8 |
| 20260902002547 | 52 | 240 | 1.0 | 6.0 | 0.00 | 0.09 | 0.00 | 76 | 1008.8 |
| 20260902002048 | 52 | 225 | 0.0 | 5.0 | 0.00 | 0.09 | 0.00 | 76 | 1009.5 |
| 20260902001547 | 51 | 246 | 0.0 | 5.0 | 0.00 | 0.09 | 0.00 | 76 | 1009.3 |
| 20260902001047 | 52 | 239 | 0.0 | 5.0 | 0.00 | 0.09 | 0.00 | 76 | 1009.4 |
| 20260902000547 | 52 | 215 | 1.0 | 6.0 | 0.00 | 0.09 | 0.00 | 75 | 1009.3 |
| 20260902000047 | 52 | 217 | 0.0 | 6.0 | 0.00 | 0.09 | 0.00 | 76 | 1011.3 |
| 20260901235548 | 52 | 232 | 2.0 | 6.0 | 0.00 | 0.09 | 0.00 | 76 | 1009.6 |
| 20260901235047 | 52 | 236 | 2.0 | 5.0 | 0.00 | 0.09 | 0.00 | 76 | 1008.8 |
| 20260901234547 | 52 | 208 | 1.0 | 6.0 | 0.00 | 0.09 | 0.00 | 75 | 1009.5 |
| 20260901234048 | 52 | 226 | 0.0 | 6.0 | 0.00 | 0.09 | 0.00 | 75 | 1009.6 |
| 20260901233547 | 52 | 232 | 0.0 | 6.0 | 0.00 | 0.09 | 0.09 | 72 | 1009.3 |
| 20260901233047 | 52 | 229 | 3.0 | 6.0 | 0.00 | 0.09 | 0.09 | 72 | 1010.6 |
| 20260901232547 | 52 | 225 | 0.0 | 6.0 | 0.00 | 0.09 | 0.09 | 70 | 1008.8 |
| 20260901232047 | 52 | 242 | 1.0 | 6.0 | 0.00 | 0.09 | 0.09 | 74 | 1008.8 |
| 20260901231547 | 52 | 232 | 0.0 | 3.0 | 0.00 | 0.09 | 0.09 | 69 | 1009.4 |
| 20260901231047 | 52 | 221 | 0.0 | 7.0 | 0.00 | 0.09 | 0.09 | 69 | 1011.1 |
| 20260901230547 | 53 | 243 | 1.0 | 7.0 | 0.00 | 0.09 | 0.09 | 73 | 1010.3 |
| 20260901230047 | 53 | 263 | 1.0 | 7.0 | 0.00 | 0.09 | 0.09 | 73 | 1009.2 |
| 20260901225547 | 53 | 207 | 0.0 | 6.0 | 0.00 | 0.09 | 0.09 | 73 | 1008.8 |
| 20260901225047 | 53 | 219 | 0.0 | 4.0 | 0.00 | 0.09 | 0.09 | 73 | 1009.4 |
| 20260901224547 | 53 | 221 | 1.0 | 7.0 | 0.00 | 0.09 | 0.09 | 73 | 1009.1 |
| 20260901224047 | 53 | 229 | 1.0 | 7.0 | 0.00 | 0.09 | 0.09 | 73 | 1009.1 |
| 20260901223548 | 53 | 217 | 2.0 | 7.0 | 0.00 | 0.09 | 0.09 | 74 | 1008.9 |
| 20260901223047 | 53 | 243 | 1.0 | 6.0 | 0.01 | 0.09 | 0.09 | 74 | 1009.1 |
| 20260901222547 | 53 | 239 | 2.0 | 6.0 | 0.01 | 0.09 | 0.09 | 74 | 1009.1 |
| 20260901222047 | 53 | 214 | 0.0 | 6.0 | 0.01 | 0.09 | 0.09 | 73 | 1009.7 |
| 20260901221547 | 53 | 226 | 3.0 | 5.0 | 0.01 | 0.09 | 0.09 | 68 | 1009.4 |
| 20260901221047 | 53 | 217 | 0.0 | 7.0 | 0.02 | 0.09 | 0.09 | 73 | 1010.2 |
| 20260901220547 | 53 | 221 | 1.0 | 7.0 | 0.02 | 0.09 | 0.09 | 73 | 1008.9 |
| 20260901220047 | 53 | 231 | 2.0 | 7.0 | 0.04 | 0.09 | 0.09 | 74 | 1009.6 |
| 20260901215547 | 53 | 249 | 3.0 | 6.0 | 0.04 | 0.09 | 0.09 | 74 | 1009.6 |
| 20260901215047 | 53 | 236 | 0.0 | 6.0 | 0.04 | 0.09 | 0.09 | 74 | 1009.6 |
| 20260901214547 | 52 | 235 | 1.0 | 7.0 | 0.04 | 0.09 | 0.09 | 75 | 1008.9 |
| 20260901214047 | 53 | 235 | 1.0 | 7.0 | 0.04 | 0.09 | 0.09 | 75 | 1009.3 |
| 20260901213547 | 53 | 219 | 0.0 | 7.0 | 0.04 | 0.09 | 0.09 | 75 | 1009.6 |
| 20260901213047 | 53 | 225 | 2.0 | 5.0 | 0.03 | 0.08 | 0.08 | 74 | 1008.8 |
| 20260901212547 | 53 | 222 | 2.0 | 7.0 | 0.03 | 0.08 | 0.08 | 76 | 1009.3 |
| 20260901212047 | 53 | 247 | 0.0 | 7.0 | 0.03 | 0.08 | 0.08 | 75 | 1009.6 |
| 20260901211547 | 53 | 256 | 3.0 | 7.0 | 0.03 | 0.08 | 0.08 | 75 | 1008.8 |
| 20260901211047 | 53 | 231 | 1.0 | 7.0 | 0.02 | 0.08 | 0.08 | 75 | 1010.4 |
| 20260901210547 | 53 | 260 | 0.0 | 7.0 | 0.02 | 0.07 | 0.07 | 75 | 1009.3 |
| 20260901210047 | 53 | 282 | 3.0 | 7.0 | 0.00 | 0.06 | 0.06 | 75 | 1009.4 |
| 20260901205547 | 53 | 204 | 1.0 | 4.0 | 0.00 | 0.05 | 0.05 | 75 | 1009.8 |
| 20260901205047 | 53 | 194 | 1.0 | 5.0 | 0.00 | 0.05 | 0.05 | 74 | 1009.3 |
| 20260901204547 | 54 | 242 | 0.0 | 5.0 | 0.00 | 0.05 | 0.05 | 74 | 1008.6 |
| 20260901204047 | 54 | 207 | 1.0 | 5.0 | 0.00 | 0.05 | 0.05 | 74 | 1009.1 |
| 20260901203547 | 54 | 242 | 4.0 | 5.0 | 0.00 | 0.05 | 0.05 | 74 | 1008.8 |
| 20260901203047 | 54 | 267 | 0.0 | 3.0 | 0.00 | 0.05 | 0.05 | 74 | 1009.3 |
| 20260901202547 | 54 | 0 | 0.0 | 3.0 | 0.00 | 0.05 | 0.05 | 74 | 1008.9 |
| 20260901202047 | 54 | 231 | 0.0 | 3.0 | 0.00 | 0.05 | 0.05 | 73 | 1009.7 |
| 20260901201547 | 54 | 0 | 0.0 | 5.0 | 0.00 | 0.05 | 0.05 | 73 | 1010.1 |
| 20260901201046 | 54 | 0 | 0.0 | 5.0 | 0.00 | 0.05 | 0.05 | 73 | 1010.7 |
| 20260901200546 | 54 | 217 | 0.0 | 5.0 | 0.00 | 0.05 | 0.05 | 73 | 1009.9 |
| 20260901200046 | 54 | 0 | 0.0 | 2.0 | 0.00 | 0.05 | 0.05 | 74 | 1010.1 |
| 20260901195546 | 54 | 0 | 0.0 | 2.0 | 0.00 | 0.05 | 0.05 | 74 | 1009.6 |
| 20260901195046 | 54 | 226 | 0.0 | 2.0 | 0.00 | 0.05 | 0.05 | 73 | 1009.7 |
| 20260901194546 | 54 | 0 | 0.0 | 6.0 | 0.00 | 0.05 | 0.05 | 74 | 1008.9 |
| 20260901194046 | 54 | 226 | 0.0 | 6.0 | 0.00 | 0.05 | 0.05 | 74 | 1009.9 |
| 20260901193546 | 54 | 239 | 0.0 | 6.0 | 0.00 | 0.05 | 0.05 | 74 | 1009.1 |
| 20260901193046 | 54 | 238 | 1.0 | 8.0 | 0.01 | 0.05 | 0.05 | 73 | 1009.6 |
| 20260901192546 | 54 | 197 | 0.0 | 8.0 | 0.01 | 0.05 | 0.05 | 74 | 1009.4 |
| 20260901192046 | 54 | 229 | 1.0 | 8.0 | 0.01 | 0.05 | 0.05 | 72 | 1009.6 |
| 20260901191546 | 54 | 0 | 0.0 | 0.0 | 0.01 | 0.05 | 0.05 | 73 | 1009.4 |
| 20260901191046 | 54 | 222 | 0.0 | 5.0 | 0.01 | 0.05 | 0.05 | 68 | 1009.8 |
| 20260901190546 | 54 | 242 | 0.0 | 5.0 | 0.01 | 0.05 | 0.05 | 74 | 1008.9 |
| 20260901190047 | 54 | 233 | 0.0 | 5.0 | 0.01 | 0.05 | 0.05 | 74 | 1010.6 |
| 20260901185546 | 54 | 228 | 1.0 | 3.0 | 0.01 | 0.05 | 0.05 | 73 | 1009.9 |
| 20260901185046 | 54 | 215 | 0.0 | 5.0 | 0.01 | 0.05 | 0.05 | 73 | 1009.8 |
| 20260901184546 | 54 | 217 | 0.0 | 5.0 | 0.01 | 0.05 | 0.05 | 73 | 1009.2 |
| 20260901184046 | 54 | 284 | 0.0 | 5.0 | 0.01 | 0.05 | 0.05 | 74 | 1009.1 |
| 20260901183546 | 54 | 235 | 0.0 | 3.0 | 0.01 | 0.05 | 0.05 | 74 | 1009.1 |
| 20260901183047 | 54 | 0 | 0.0 | 2.0 | 0.00 | 0.04 | 0.04 | 74 | 1009.6 |
| 20260901182546 | 54 | 0 | 0.0 | 2.0 | 0.00 | 0.04 | 0.04 | 74 | 1009.1 |
| 20260901182046 | 54 | 235 | 0.0 | 2.0 | 0.00 | 0.04 | 0.04 | 75 | 1009.6 |
| 20260901181547 | 54 | 238 | 0.0 | 4.0 | 0.00 | 0.04 | 0.04 | 74 | 1009.5 |
| 20260901181046 | 54 | 0 | 0.0 | 4.0 | 0.00 | 0.04 | 0.04 | 75 | 1011.2 |
| 20260901180546 | 54 | 238 | 0.0 | 4.0 | 0.00 | 0.04 | 0.04 | 75 | 1008.9 |
| 20260901180046 | 54 | 250 | 0.0 | 3.0 | 0.01 | 0.04 | 0.04 | 74 | 1009.4 |
| 20260901175546 | 54 | 243 | 0.0 | 3.0 | 0.01 | 0.04 | 0.04 | 75 | 1008.9 |
| 20260901175046 | 54 | 0 | 0.0 | 2.0 | 0.01 | 0.04 | 0.04 | 75 | 1009.4 |
| 20260901174546 | 54 | 226 | 0.0 | 2.0 | 0.01 | 0.04 | 0.04 | 75 | 1009.4 |
| 20260901174137 | 53 | 187 | 0.0 | 4.0 | 0.01 | 0.04 | 0.04 | 75 | 1009.6 |
| 20260901174046 | 53 | 187 | 0.0 | 4.0 | 0.01 | 0.04 | 0.04 | 75 | 1009.6 |
| 20260901173546 | 53 | 163 | 0.0 | 4.0 | 0.01 | 0.04 | 0.04 | 76 | 1009.7 |
| 20260901173046 | 53 | 224 | 0.0 | 4.0 | 0.01 | 0.04 | 0.04 | 76 | 1008.7 |
| 20260901172546 | 53 | 169 | 0.0 | 2.0 | 0.01 | 0.04 | 0.04 | 76 | 1008.7 |
| 20260901172046 | 53 | 0 | 0.0 | 0.0 | 0.01 | 0.04 | 0.04 | 76 | 1009.5 |
| 20260901171546 | 53 | 0 | 0.0 | 7.0 | 0.01 | 0.04 | 0.04 | 75 | 1009.2 |
| 20260901171046 | 53 | 172 | 0.0 | 7.0 | 0.01 | 0.04 | 0.04 | 76 | 1009.4 |
| 20260901170546 | 53 | 219 | 0.0 | 7.0 | 0.01 | 0.04 | 0.04 | 76 | 1008.6 |
| 20260901170046 | 53 | 231 | 0.0 | 3.0 | 0.00 | 0.03 | 0.04 | 76 | 1008.6 |
| 20260901165546 | 53 | 0 | 0.0 | 1.0 | 0.00 | 0.03 | 0.03 | 77 | 1008.6 |
| 20260901165046 | 53 | 257 | 0.0 | 1.0 | 0.00 | 0.03 | 0.03 | 77 | 1009.2 |
| 20260901164546 | 53 | 0 | 0.0 | 0.0 | 0.00 | 0.03 | 0.03 | 76 | 1008.6 |
| 20260901164046 | 53 | 0 | 0.0 | 0.0 | 0.00 | 0.03 | 0.03 | 77 | 1008.6 |
| 20260901163546 | 53 | 0 | 0.0 | 0.0 | 0.00 | 0.03 | 0.03 | 77 | 1008.6 |
| 20260901163046 | 53 | 0 | 0.0 | 0.0 | 0.00 | 0.03 | 0.03 | 77 | 1008.6 |
| 20260901162546 | 52 | 0 | 0.0 | 0.0 | 0.00 | 0.03 | 0.03 | 76 | 1009.1 |
| 20260901162046 | 52 | 0 | 0.0 | 0.0 | 0.00 | 0.03 | 0.03 | 77 | 1008.7 |
| 20260901161546 | 52 | 0 | 0.0 | 1.0 | 0.00 | 0.03 | 0.03 | 76 | 1008.7 |
| 20260901161046 | 52 | 0 | 0.0 | 1.0 | 0.00 | 0.03 | 0.03 | 76 | 1008.7 |
| 20260901160546 | 52 | 257 | 0.0 | 1.0 | 0.00 | 0.03 | 0.03 | 76 | 1009.1 |
| 20260901160046 | 52 | 0 | 0.0 | 0.0 | 0.00 | 0.03 | 0.03 | 76 | 1008.6 |
| 20260901155546 | 52 | 0 | 0.0 | 1.0 | 0.00 | 0.03 | 0.03 | 76 | 1008.6 |
| 20260901155046 | 52 | 0 | 0.0 | 1.0 | 0.00 | 0.03 | 0.03 | 76 | 1009.3 |
| 20260901154546 | 52 | 211 | 0.0 | 1.0 | 0.00 | 0.03 | 0.03 | 76 | 1008.6 |
| 20260901154046 | 52 | 0 | 0.0 | 0.0 | 0.00 | 0.03 | 0.03 | 76 | 1009.3 |
| 20260901153546 | 51 | 0 | 0.0 | 0.0 | 0.00 | 0.03 | 0.03 | 76 | 1009.3 |
| 20260901153046 | 51 | 0 | 0.0 | 0.0 | 0.00 | 0.03 | 0.03 | 76 | 1008.6 |
| 20260901152546 | 51 | 0 | 0.0 | 0.0 | 0.00 | 0.03 | 0.03 | 76 | 1009.1 |
| 20260901152046 | 51 | 0 | 0.0 | 0.0 | 0.00 | 0.03 | 0.03 | 77 | 1008.7 |
| 20260901151546 | 51 | 0 | 0.0 | 0.0 | 0.00 | 0.03 | 0.03 | 75 | 1008.7 |
| 20260901151047 | 51 | 0 | 0.0 | 0.0 | 0.00 | 0.03 | 0.03 | 76 | 1008.6 |
| 20260901150546 | 51 | 0 | 0.0 | 0.0 | 0.00 | 0.03 | 0.03 | 77 | 1008.6 |
| 20260901150046 | 51 | 0 | 0.0 | 0.0 | 0.00 | 0.03 | 0.03 | 77 | 1008.6 |
| 20260901145546 | 51 | 0 | 0.0 | 0.0 | 0.00 | 0.03 | 0.03 | 76 | 1008.6 |
| 20260901145046 | 51 | 0 | 0.0 | 0.0 | 0.00 | 0.03 | 0.03 | 77 | 1008.6 |
| 20260901144546 | 51 | 0 | 0.0 | 0.0 | 0.00 | 0.03 | 0.03 | 76 | 1008.9 |
| 20260901144046 | 51 | 0 | 0.0 | 0.0 | 0.00 | 0.03 | 0.03 | 76 | 1008.9 |
| 20260901143546 | 50 | 0 | 0.0 | 0.0 | 0.00 | 0.03 | 0.03 | 77 | 1008.5 |
| 20260901143046 | 51 | 0 | 0.0 | 0.0 | 0.00 | 0.03 | 0.03 | 73 | 1008.5 |
| 20260901142546 | 50 | 0 | 0.0 | 0.0 | 0.00 | 0.03 | 0.03 | 72 | 1009.8 |
| 20260901142046 | 50 | 0 | 0.0 | 0.0 | 0.01 | 0.03 | 0.03 | 77 | 1008.4 |
| 20260901141546 | 51 | 0 | 0.0 | 0.0 | 0.01 | 0.03 | 0.03 | 77 | 1008.9 |
| 20260901141046 | 51 | 0 | 0.0 | 0.0 | 0.01 | 0.03 | 0.03 | 77 | 1008.2 |
| 20260901140546 | 50 | 0 | 0.0 | 0.0 | 0.01 | 0.03 | 0.03 | 76 | 1008.7 |
| 20260901140046 | 51 | 0 | 0.0 | 0.0 | 0.01 | 0.03 | 0.03 | 77 | 1008.7 |
| 20260901135546 | 51 | 0 | 0.0 | 0.0 | 0.01 | 0.03 | 0.03 | 77 | 1008.3 |
| 20260901135046 | 51 | 0 | 0.0 | 0.0 | 0.01 | 0.03 | 0.03 | 77 | 1008.9 |
| 20260901134546 | 51 | 0 | 0.0 | 0.0 | 0.01 | 0.03 | 0.03 | 78 | 1008.3 |
| 20260901134046 | 51 | 0 | 0.0 | 0.0 | 0.01 | 0.03 | 0.03 | 78 | 1008.8 |
| 20260901133546 | 51 | 0 | 0.0 | 0.0 | 0.01 | 0.03 | 0.03 | 78 | 1008.7 |
| 20260901133046 | 51 | 0 | 0.0 | 0.0 | 0.01 | 0.03 | 0.03 | 77 | 1008.2 |
| 20260901132546 | 50 | 0 | 0.0 | 0.0 | 0.01 | 0.03 | 0.03 | 78 | 1008.6 |
| 20260901132046 | 50 | 0 | 0.0 | 0.0 | 0.01 | 0.02 | 0.03 | 77 | 1009.3 |
| 20260901131546 | 50 | 0 | 0.0 | 0.0 | 0.01 | 0.02 | 0.02 | 77 | 1008.0 |
| 20260901131046 | 51 | 0 | 0.0 | 0.0 | 0.01 | 0.02 | 0.02 | 77 | 1008.0 |
| 20260901130546 | 51 | 0 | 0.0 | 0.0 | 0.01 | 0.02 | 0.02 | 77 | 1008.0 |
| 20260901130046 | 51 | 0 | 0.0 | 0.0 | 0.01 | 0.02 | 0.02 | 77 | 1008.0 |
| 20260901125546 | 51 | 0 | 0.0 | 0.0 | 0.01 | 0.02 | 0.02 | 77 | 1008.0 |
| 20260901125046 | 51 | 0 | 0.0 | 2.0 | 0.01 | 0.02 | 0.02 | 78 | 1008.0 |
| 20260901124546 | 51 | 0 | 0.0 | 2.0 | 0.01 | 0.02 | 0.02 | 78 | 1008.2 |
| 20260901124046 | 50 | 275 | 0.0 | 2.0 | 0.01 | 0.02 | 0.02 | 78 | 1008.0 |
| 20260901123546 | 51 | 278 | 0.0 | 2.0 | 0.01 | 0.02 | 0.02 | 78 | 1008.0 |
| 20260901123046 | 50 | 259 | 0.0 | 3.0 | 0.02 | 0.02 | 0.02 | 78 | 1008.2 |
| 20260901122546 | 50 | 0 | 0.0 | 3.0 | 0.02 | 0.02 | 0.02 | 78 | 1008.2 |
| 20260901122046 | 50 | 278 | 0.0 | 3.0 | 0.01 | 0.02 | 0.02 | 78 | 1008.0 |
| 20260901121546 | 51 | 280 | 0.0 | 8.0 | 0.01 | 0.02 | 0.02 | 78 | 1008.7 |
| 20260901121046 | 50 | 273 | 0.0 | 8.0 | 0.01 | 0.01 | 0.01 | 78 | 1008.0 |
| 20260901120546 | 50 | 253 | 2.0 | 8.0 | 0.01 | 0.01 | 0.01 | 77 | 1008.0 |
| 20260901120046 | 50 | 256 | 2.0 | 6.0 | 0.01 | 0.01 | 0.01 | 77 | 1008.0 |
| 20260901115546 | 50 | 245 | 2.0 | 6.0 | 0.01 | 0.01 | 0.01 | 77 | 1007.9 |
| 20260901115046 | 50 | 253 | 2.0 | 6.0 | 0.01 | 0.01 | 0.01 | 78 | 1008.0 |
| 20260901114546 | 51 | 263 | 1.0 | 5.0 | 0.01 | 0.01 | 0.01 | 78 | 1008.0 |
| 20260901114046 | 50 | 267 | 0.0 | 5.0 | 0.01 | 0.01 | 0.01 | 78 | 1008.0 |
| 20260901113546 | 50 | 273 | 1.0 | 5.0 | 0.01 | 0.01 | 0.01 | 77 | 1008.2 |
| 20260901113046 | 50 | 247 | 2.0 | 8.0 | 0.00 | 0.01 | 0.01 | 77 | 1008.8 |
| 20260901112546 | 50 | 257 | 0.0 | 8.0 | 0.00 | 0.00 | 0.00 | 77 | 1008.2 |
| 20260901112046 | 51 | 277 | 0.0 | 8.0 | 0.00 | 0.00 | 0.00 | 77 | 1008.2 |
| 20260901111546 | 50 | 285 | 1.0 | 4.0 | 0.00 | 0.00 | 0.00 | 78 | 1008.2 |
| 20260901111045 | 50 | 333 | 0.0 | 1.0 | 0.00 | 0.00 | 0.00 | 78 | 1008.5 |
| 20260901110545 | 50 | 0 | 0.0 | 6.0 | 0.00 | 0.00 | 0.00 | 77 | 1007.9 |
| 20260901110045 | 50 | 284 | 0.0 | 6.0 | 0.00 | 0.00 | 0.00 | 77 | 1008.6 |
| 20260901105545 | 50 | 268 | 1.0 | 6.0 | 0.00 | 0.00 | 0.00 | 77 | 1008.0 |
| 20260901105045 | 50 | 267 | 0.0 | 5.0 | 0.00 | 0.00 | 0.00 | 77 | 1008.0 |
| 20260901104545 | 50 | 249 | 0.0 | 5.0 | 0.00 | 0.00 | 0.00 | 77 | 1008.5 |
| 20260901104045 | 50 | 261 | 0.0 | 4.0 | 0.00 | 0.00 | 0.00 | 76 | 1008.0 |
| 20260901103545 | 50 | 263 | 1.0 | 7.0 | 0.00 | 0.00 | 0.00 | 77 | 1008.2 |
| 20260901103045 | 50 | 270 | 1.0 | 7.0 | 0.00 | 0.00 | 0.00 | 77 | 1009.4 |
| 20260901102545 | 50 | 266 | 2.0 | 7.0 | 0.00 | 0.00 | 0.00 | 77 | 1008.0 |
| 20260901102045 | 50 | 292 | 1.0 | 6.0 | 0.00 | 0.00 | 0.00 | 77 | 1008.0 |
| 20260901101545 | 50 | 270 | 0.0 | 6.0 | 0.00 | 0.00 | 0.00 | 77 | 1008.0 |
| 20260901101045 | 50 | 280 | 0.0 | 6.0 | 0.00 | 0.00 | 0.00 | 77 | 1008.6 |
| 20260901100545 | 50 | 266 | 2.0 | 4.0 | 0.00 | 0.00 | 0.00 | 77 | 1008.0 |
| 20260901100045 | 50 | 267 | 2.0 | 9.0 | 0.00 | 0.00 | 0.00 | 77 | 1008.0 |
| 20260901095545 | 50 | 267 | 2.0 | 9.0 | 0.00 | 0.00 | 0.00 | 77 | 1007.9 |
| 20260901094546 | 50 | 270 | 4.0 | 9.0 | 0.00 | 0.00 | 0.00 | 77 | 1007.9 |
| 20260901094045 | 50 | 259 | 4.0 | 9.0 | 0.00 | 0.00 | 0.00 | 77 | 1007.9 |
| 20260901093545 | 50 | 275 | 5.0 | 9.0 | 0.00 | 0.00 | 0.00 | 77 | 1007.9 |
| 20260901093045 | 50 | 266 | 6.0 | 9.0 | 0.00 | 0.00 | 0.00 | 77 | 1008.6 |
| 20260901092545 | 50 | 268 | 1.0 | 8.0 | 0.00 | 0.00 | 0.00 | 77 | 1008.0 |
| 20260901092045 | 50 | 271 | 3.0 | 8.0 | 0.00 | 0.00 | 0.00 | 77 | 1008.0 |
| 20260901091545 | 50 | 271 | 5.0 | 10.0 | 0.00 | 0.00 | 0.00 | 78 | 1008.0 |
| 20260901091045 | 50 | 261 | 5.0 | 10.0 | 0.00 | 0.00 | 0.00 | 77 | 1007.9 |
| 20260901090545 | 50 | 277 | 4.0 | 10.0 | 0.00 | 0.00 | 0.00 | 77 | 1007.9 |
| 20260901090045 | 50 | 284 | 6.0 | 10.0 | 0.00 | 0.00 | 0.00 | 77 | 1008.6 |
| 20260901085545 | 50 | 280 | 6.0 | 10.0 | 0.00 | 0.00 | 0.00 | 77 | 1007.9 |
| 20260901085048 | 50 | 277 | 6.0 | 10.0 | 0.00 | 0.00 | 0.00 | 76 | 1008.6 |
| 20260901084545 | 50 | 275 | 5.0 | 9.0 | 0.00 | 0.00 | 0.00 | 76 | 1008.0 |
| 20260901084045 | 50 | 277 | 5.0 | 9.0 | 0.00 | 0.00 | 0.00 | 77 | 1008.6 |
| 20260901083545 | 50 | 274 | 5.0 | 9.0 | 0.00 | 0.00 | 0.00 | 76 | 1008.5 |
| 20260901083045 | 50 | 274 | 4.0 | 9.0 | 0.00 | 0.00 | 0.00 | 76 | 1008.2 |
| 20260901082545 | 50 | 268 | 6.0 | 9.0 | 0.00 | 0.00 | 0.00 | 76 | 1008.2 |
| 20260901082045 | 50 | 277 | 6.0 | 8.0 | 0.00 | 0.00 | 0.00 | 76 | 1008.2 |
| 20260901081545 | 50 | 263 | 5.0 | 8.0 | 0.00 | 0.00 | 0.00 | 75 | 1008.2 |
| 20260901081045 | 50 | 278 | 3.0 | 8.0 | 0.00 | 0.00 | 0.00 | 74 | 1008.7 |
| 20260901080545 | 50 | 292 | 6.0 | 8.0 | 0.00 | 0.00 | 0.00 | 73 | 1008.6 |
| 20260901080045 | 50 | 274 | 4.0 | 9.0 | 0.00 | 0.00 | 0.00 | 71 | 1008.2 |
| 20260901075545 | 50 | 280 | 6.0 | 9.0 | 0.00 | 0.00 | 0.00 | 72 | 1008.6 |
| 20260901075045 | 51 | 281 | 5.0 | 9.0 | 0.00 | 0.00 | 0.00 | 72 | 1008.4 |
| 20260901074545 | 51 | 270 | 5.0 | 7.0 | 0.00 | 0.00 | 0.00 | 71 | 1008.4 |
| 20260901074045 | 51 | 267 | 6.0 | 7.0 | 0.00 | 0.00 | 0.00 | 72 | 1007.9 |
| 20260901073545 | 51 | 280 | 4.0 | 7.0 | 0.00 | 0.00 | 0.00 | 73 | 1008.0 |
| 20260901073045 | 51 | 264 | 2.0 | 6.0 | 0.00 | 0.00 | 0.00 | 72 | 1008.6 |
| 20260901072545 | 51 | 291 | 3.0 | 5.0 | 0.00 | 0.00 | 0.00 | 71 | 1008.0 |
| 20260901072045 | 51 | 281 | 2.0 | 4.0 | 0.00 | 0.00 | 0.00 | 72 | 1008.0 |
| 20260901071545 | 51 | 312 | 2.0 | 3.0 | 0.00 | 0.00 | 0.00 | 71 | 1007.9 |
| 20260901071045 | 51 | 306 | 1.0 | 3.0 | 0.00 | 0.00 | 0.00 | 71 | 1007.9 |
| 20260901070545 | 52 | 324 | 1.0 | 3.0 | 0.00 | 0.00 | 0.00 | 71 | 1007.9 |
| 20260901070045 | 52 | 316 | 1.0 | 4.0 | 0.00 | 0.00 | 0.00 | 70 | 1008.4 |